,,Stat5,,Stat1,,Stat2,,Stat3,,Stat4,,Wind1,,Wind1,
time,status,PA1M_AVG,status,PR1M_SUM,status,RH1M_AVG,status,SR1M_AVG,status,TA1M_AVG,status,W1dAve1m,status,W1sAve1m,
2003-01-31, 00:00:00,VALID,919.99,VALID,0,VALID,98.0178,VALID,-0.0849042,VALID,19.9399,VALID,71,VALID,0.567325,
2003-01-31, 00:01:00,VALID,919.957,VALID,0,VALID,98.0127,VALID,-0.0849042,VALID,19.9299,VALID,92,VALID,0.616132,
2003-01-31, 00:02:00,VALID,919.927,VALID,0,VALID,98.0636,VALID,-0.0679233,VALID,19.9071,VALID,97,VALID,0.275724,
2003-01-31, 00:03:00,VALID,919.893,VALID,0,VALID,98.1196,VALID,-0.0849042,VALID,19.9043,VALID,102,VALID,0.239366,
2003-01-31, 00:04:00,VALID,919.884,VALID,0,VALID,98.1412,VALID,-0.0679233,VALID,19.8809,VALID,117,VALID,0.445112,
2003-01-31, 00:05:00,VALID,919.86,VALID,0,VALID,98.1857,VALID,0.0169808,VALID,19.8668,VALID,113,VALID,0.302576,
2003-01-31, 00:06:00,VALID,919.838,VALID,0,VALID,98.2264,VALID,0.0169808,VALID,19.8633,VALID,114,VALID,0.347155,
2003-01-31, 00:07:00,VALID,919.835,VALID,0,VALID,98.2264,VALID,0,VALID,19.8541,VALID,114,VALID,0.263091,
2003-01-31, 00:08:00,VALID,919.821,VALID,0,VALID,98.2925,VALID,0.0339617,VALID,19.8412,VALID,114,VALID,0.228401,
2003-01-31, 00:09:00,VALID,919.805,VALID,0,VALID,98.3815,VALID,0.0339617,VALID,19.8509,VALID,131,VALID,0.370593,
2003-01-31, 00:10:00,VALID,919.79,VALID,0,VALID,98.3866,VALID,0.0169808,VALID,19.8476,VALID,165,VALID,0.439611,
2003-01-31, 00:11:00,VALID,919.799,VALID,0,VALID,98.4018,VALID,0.0679233,VALID,19.8481,VALID,163,VALID,0.184896,
2003-01-31, 00:12:00,VALID,919.794,VALID,0,VALID,98.5112,VALID,0,VALID,19.8342,VALID,161,VALID,0.197635,
2003-01-31, 00:13:00,VALID,919.794,VALID,0,VALID,98.5188,VALID,0,VALID,19.8409,VALID,160,VALID,0.339962,
2003-01-31, 00:14:00,VALID,919.777,VALID,0,VALID,98.4553,VALID,0.0339617,VALID,19.8379,VALID,157,VALID,0.60026,
2003-01-31, 00:15:00,VALID,919.777,VALID,0,VALID,98.4769,VALID,0.0169808,VALID,19.8255,VALID,153,VALID,0.293359,
2003-01-31, 00:16:00,VALID,919.766,VALID,0,VALID,98.5341,VALID,0.0169808,VALID,19.8153,VALID,151,VALID,0.123816,
2003-01-31, 00:17:00,VALID,919.764,VALID,0,VALID,98.5201,VALID,0,VALID,19.8088,VALID,159,VALID,0.329504,
2003-01-31, 00:18:00,VALID,919.776,VALID,0,VALID,98.4934,VALID,0,VALID,19.7897,VALID,160,VALID,0.344151,
2003-01-31, 00:19:00,VALID,919.777,VALID,0,VALID,98.4743,VALID,0.0169808,VALID,19.78,VALID,160,VALID,0.448902,
2003-01-31, 00:20:00,VALID,919.778,VALID,0,VALID,98.4947,VALID,0,VALID,19.7641,VALID,160,VALID,0.176011,
2003-01-31, 00:21:00,VALID,919.791,VALID,0,VALID,98.5315,VALID,0,VALID,19.7512,VALID,160,VALID,0.118189,
2003-01-31, 00:22:00,VALID,919.792,VALID,0,VALID,98.5519,VALID,0,VALID,19.728,VALID,160,VALID,0.197846,
2003-01-31, 00:23:00,VALID,919.799,VALID,0,VALID,98.5481,VALID,0.0169808,VALID,19.7181,VALID,145,VALID,0.353082,
2003-01-31, 00:24:00,VALID,919.799,VALID,0,VALID,98.5748,VALID,0.0169808,VALID,19.7124,VALID,140,VALID,0.277344,
2003-01-31, 00:25:00,VALID,919.784,VALID,0,VALID,98.6002,VALID,0,VALID,19.6992,VALID,140,VALID,0.466619,
2003-01-31, 00:26:00,VALID,919.787,VALID,0,VALID,98.6053,VALID,0,VALID,19.6965,VALID,143,VALID,0.621962,
2003-01-31, 00:27:00,VALID,919.769,VALID,0,VALID,98.6193,VALID,0.0169808,VALID,19.6833,VALID,141,VALID,0.480469,
2003-01-31, 00:28:00,VALID,919.743,VALID,0,VALID,98.6867,VALID,0.0169808,VALID,19.6604,VALID,144,VALID,0.410985,
2003-01-31, 00:29:00,VALID,919.714,VALID,0,VALID,98.7363,VALID,0.0169808,VALID,19.6671,VALID,161,VALID,0.31204,
2003-01-31, 00:30:00,VALID,919.712,VALID,0,VALID,98.7681,VALID,0.0169808,VALID,19.6574,VALID,163,VALID,0.365184,
2003-01-31, 00:31:00,VALID,919.688,VALID,0,VALID,98.7884,VALID,0,VALID,19.6512,VALID,163,VALID,0.385769,
2003-01-31, 00:32:00,VALID,919.674,VALID,0,VALID,98.81,VALID,0.0169808,VALID,19.644,VALID,163,VALID,0.433364,
2003-01-31, 00:33:00,VALID,919.655,VALID,0,VALID,98.8253,VALID,0,VALID,19.6413,VALID,163,VALID,0.428085,
2003-01-31, 00:34:00,VALID,919.65,VALID,0,VALID,98.8533,VALID,-0.0169808,VALID,19.6318,VALID,163,VALID,0.372889,
2003-01-31, 00:35:00,VALID,919.632,VALID,0,VALID,98.866,VALID,-0.101885,VALID,19.6234,VALID,164,VALID,0.518229,
2003-01-31, 00:36:00,VALID,919.616,VALID,0,VALID,98.8507,VALID,-0.101885,VALID,19.6204,VALID,165,VALID,0.355859,
2003-01-31, 00:37:00,VALID,919.608,VALID,0,VALID,98.8609,VALID,-0.118866,VALID,19.6107,VALID,165,VALID,0.308002,
2003-01-31, 00:38:00,VALID,919.592,VALID,0,VALID,98.88,VALID,-0.101885,VALID,19.6107,VALID,166,VALID,0.249349,
2003-01-31, 00:39:00,VALID,919.583,VALID,0,VALID,98.8863,VALID,-0.101885,VALID,19.6104,VALID,177,VALID,0.49668,
2003-01-31, 00:40:00,VALID,919.567,VALID,0,VALID,98.8863,VALID,-0.101885,VALID,19.6206,VALID,171,VALID,0.581913,
2003-01-31, 00:41:00,VALID,919.552,VALID,0,VALID,98.8889,VALID,-0.101885,VALID,19.6003,VALID,173,VALID,0.644991,
2003-01-31, 00:42:00,VALID,919.55,VALID,0.2,VALID,98.9079,VALID,-0.101885,VALID,19.6177,VALID,187,VALID,0.464944,
2003-01-31, 00:43:00,VALID,919.552,VALID,0,VALID,98.9461,VALID,-0.101885,VALID,19.6206,VALID,223,VALID,0.508657,
2003-01-31, 00:44:00,VALID,919.535,VALID,0,VALID,98.9486,VALID,-0.101885,VALID,19.6236,VALID,242,VALID,1.03883,
2003-01-31, 00:45:00,VALID,919.531,VALID,0,VALID,98.9792,VALID,-0.0849042,VALID,19.643,VALID,242,VALID,0.973758,
2003-01-31, 00:46:00,VALID,919.516,VALID,0,VALID,98.9868,VALID,-0.101885,VALID,19.6721,VALID,253,VALID,0.302365,
2003-01-31, 00:47:00,VALID,919.527,VALID,0,VALID,98.9944,VALID,-0.101885,VALID,19.7014,VALID,253,VALID,0.0674913,
2003-01-31, 00:48:00,VALID,919.52,VALID,0,VALID,98.9944,VALID,-0.101885,VALID,19.7141,VALID,253,VALID,0.00292969,
2003-01-31, 00:49:00,VALID,919.513,VALID,0,VALID,98.9855,VALID,-0.101885,VALID,19.7136,VALID,7,VALID,0.395833,
2003-01-31, 00:50:00,VALID,919.502,VALID,0,VALID,99.0351,VALID,0,VALID,19.7517,VALID,12,VALID,0.687934,
2003-01-31, 00:51:00,VALID,919.492,VALID,0,VALID,99.0008,VALID,0,VALID,19.7611,VALID,13,VALID,0.832617,
2003-01-31, 00:52:00,VALID,919.485,VALID,0,VALID,98.9283,VALID,0.0169808,VALID,19.7385,VALID,13,VALID,0.698627,
2003-01-31, 00:53:00,VALID,919.482,VALID,0,VALID,98.9003,VALID,0,VALID,19.7186,VALID,32,VALID,0.684053,
2003-01-31, 00:54:00,VALID,919.481,VALID,0,VALID,98.9232,VALID,0.0169808,VALID,19.7188,VALID,42,VALID,0.390425,
2003-01-31, 00:55:00,VALID,919.464,VALID,0,VALID,98.9105,VALID,0,VALID,19.7251,VALID,41,VALID,0.287373,
2003-01-31, 00:56:00,VALID,919.452,VALID,0,VALID,98.838,VALID,0,VALID,19.7062,VALID,41,VALID,0.0572151,
2003-01-31, 00:57:00,VALID,919.434,VALID,0,VALID,98.7935,VALID,0,VALID,19.6835,VALID,48,VALID,0.438301,
2003-01-31, 00:58:00,VALID,919.416,VALID,0,VALID,98.8139,VALID,0,VALID,19.6875,VALID,55,VALID,0.478252,
2003-01-31, 00:59:00,VALID,919.403,VALID,0,VALID,98.8418,VALID,0.0169808,VALID,19.6773,VALID,55,VALID,0.590061,
2003-01-31, 01:00:00,VALID,919.392,VALID,0,VALID,98.8151,VALID,-0.0169808,VALID,19.6741,VALID,42,VALID,0.54043,
2003-01-31, 01:01:00,VALID,919.391,VALID,0,VALID,98.8507,VALID,-0.0169808,VALID,19.6776,VALID,24,VALID,0.527225,
2003-01-31, 01:02:00,VALID,919.378,VALID,0,VALID,98.8316,VALID,0.0169808,VALID,19.6771,VALID,22,VALID,0.30816,
2003-01-31, 01:03:00,VALID,919.362,VALID,0,VALID,98.8444,VALID,0.0339617,VALID,19.6768,VALID,22,VALID,0.253125,
2003-01-31, 01:04:00,VALID,919.35,VALID,0,VALID,98.9029,VALID,-0.0169808,VALID,19.6865,VALID,22,VALID,0.0440341,
2003-01-31, 01:05:00,VALID,919.325,VALID,0,VALID,98.8965,VALID,0.0169808,VALID,19.7062,VALID,22,VALID,0.188649,
2003-01-31, 01:06:00,VALID,919.309,VALID,0,VALID,98.8622,VALID,0.0169808,VALID,19.7032,VALID,22,VALID,0.0602965,
2003-01-31, 01:07:00,VALID,919.29,VALID,0,VALID,98.852,VALID,0,VALID,19.7029,VALID,22,VALID,0,
2003-01-31, 01:08:00,VALID,919.281,VALID,0,VALID,98.7922,VALID,0,VALID,19.6903,VALID,22,VALID,0.0923713,
2003-01-31, 01:09:00,VALID,919.267,VALID,0,VALID,98.7668,VALID,0,VALID,19.6773,VALID,79,VALID,0.23758,
2003-01-31, 01:10:00,VALID,919.267,VALID,0,VALID,98.7719,VALID,-0.0169808,VALID,19.6607,VALID,101,VALID,0.367399,
2003-01-31, 01:11:00,VALID,919.286,VALID,0,VALID,98.7515,VALID,0.0339617,VALID,19.6512,VALID,117,VALID,0.744575,
2003-01-31, 01:12:00,VALID,919.292,VALID,0,VALID,98.7007,VALID,-0.0169808,VALID,19.6224,VALID,108,VALID,0.752148,
2003-01-31, 01:13:00,VALID,919.296,VALID,0,VALID,98.7248,VALID,0,VALID,19.603,VALID,109,VALID,0.665483,
2003-01-31, 01:14:00,VALID,919.305,VALID,0,VALID,98.7846,VALID,-0.0169808,VALID,19.6,VALID,130,VALID,0.648655,
2003-01-31, 01:15:00,VALID,919.303,VALID,0,VALID,98.7986,VALID,-0.0169808,VALID,19.5933,VALID,144,VALID,0.875391,
2003-01-31, 01:16:00,VALID,919.303,VALID,0,VALID,98.8342,VALID,0,VALID,19.5836,VALID,127,VALID,0.449337,
2003-01-31, 01:17:00,VALID,919.294,VALID,0,VALID,98.8533,VALID,0.0169808,VALID,19.5607,VALID,148,VALID,0.670037,
2003-01-31, 01:18:00,VALID,919.291,VALID,0,VALID,98.8851,VALID,0,VALID,19.554,VALID,144,VALID,0.51863,
2003-01-31, 01:19:00,VALID,919.272,VALID,0,VALID,98.9156,VALID,0,VALID,19.5548,VALID,103,VALID,0.0956503,
2003-01-31, 01:20:00,VALID,919.265,VALID,0,VALID,98.9868,VALID,0,VALID,19.558,VALID,82,VALID,0.251838,
2003-01-31, 01:21:00,VALID,919.246,VALID,0,VALID,99.0237,VALID,-0.0169808,VALID,19.5677,VALID,53,VALID,0.473357,
2003-01-31, 01:22:00,VALID,919.222,VALID,0,VALID,99.0605,VALID,0,VALID,19.5769,VALID,31,VALID,0.630068,
2003-01-31, 01:23:00,VALID,919.197,VALID,0,VALID,99.1038,VALID,0,VALID,19.6065,VALID,31,VALID,0.412543,
2003-01-31, 01:24:00,VALID,919.186,VALID,0,VALID,99.1216,VALID,0.0169808,VALID,19.6159,VALID,31,VALID,0.327539,
2003-01-31, 01:25:00,VALID,919.162,VALID,0,VALID,99.105,VALID,0,VALID,19.6157,VALID,31,VALID,0.397727,
2003-01-31, 01:26:00,VALID,919.155,VALID,0,VALID,99.0961,VALID,0,VALID,19.6067,VALID,31,VALID,0.511068,
2003-01-31, 01:27:00,VALID,919.151,VALID,0,VALID,99.1063,VALID,0.0169808,VALID,19.6032,VALID,31,VALID,0.47832,
2003-01-31, 01:28:00,VALID,919.127,VALID,0,VALID,99.1368,VALID,0.0169808,VALID,19.6167,VALID,31,VALID,0.272491,
2003-01-31, 01:29:00,VALID,919.123,VALID,0,VALID,99.1419,VALID,0,VALID,19.6196,VALID,31,VALID,0.161994,
2003-01-31, 01:30:00,VALID,919.096,VALID,0,VALID,99.1165,VALID,0.0169808,VALID,19.5963,VALID,31,VALID,0.216546,
2003-01-31, 01:31:00,VALID,919.079,VALID,0,VALID,99.0974,VALID,0.0509425,VALID,19.5896,VALID,31,VALID,0.156461,
2003-01-31, 01:32:00,VALID,919.077,VALID,0,VALID,99.0847,VALID,-0.0169808,VALID,19.5769,VALID,31,VALID,0.0229779,
2003-01-31, 01:33:00,VALID,919.058,VALID,0,VALID,99.0834,VALID,0,VALID,19.5742,VALID,31,VALID,0.00120192,
2003-01-31, 01:34:00,VALID,919.028,VALID,0,VALID,99.1139,VALID,0.0169808,VALID,19.5774,VALID,31,VALID,0,
2003-01-31, 01:35:01,VALID,919.014,VALID,0,VALID,99.1228,VALID,0.0169808,VALID,19.5806,VALID,31,VALID,0,
2003-01-31, 01:36:00,VALID,918.996,VALID,0,VALID,99.1279,VALID,0.0169808,VALID,19.5769,VALID,31,VALID,0,
2003-01-31, 01:37:00,VALID,918.988,VALID,0,VALID,99.1152,VALID,-0.0339617,VALID,19.5809,VALID,31,VALID,0,
2003-01-31, 01:38:01,VALID,918.981,VALID,0,VALID,99.1063,VALID,0.0169808,VALID,19.5672,VALID,31,VALID,0.285156,
2003-01-31, 01:39:00,VALID,918.967,VALID,0,VALID,99.1279,VALID,0,VALID,19.5709,VALID,31,VALID,0.357031,
2003-01-31, 01:40:00,VALID,918.952,VALID,0,VALID,99.1394,VALID,0.0169808,VALID,19.5911,VALID,32,VALID,0.344934,
2003-01-31, 01:41:00,VALID,918.926,VALID,0,VALID,99.1241,VALID,0.0169808,VALID,19.5801,VALID,32,VALID,0.390625,
2003-01-31, 01:42:01,VALID,918.918,VALID,0,VALID,99.1139,VALID,0.0169808,VALID,19.5965,VALID,33,VALID,0.429888,
2003-01-31, 01:43:00,VALID,918.907,VALID,0,VALID,99.0974,VALID,0,VALID,19.5834,VALID,35,VALID,0.408784,
2003-01-31, 01:44:00,VALID,918.905,VALID,0,VALID,99.0771,VALID,0,VALID,19.5871,VALID,35,VALID,0.293428,
2003-01-31, 01:45:01,VALID,918.901,VALID,0,VALID,99.0898,VALID,0.0169808,VALID,19.6095,VALID,35,VALID,0.0709135,
2003-01-31, 01:46:00,VALID,918.885,VALID,0,VALID,99.0745,VALID,0.0169808,VALID,19.6027,VALID,35,VALID,0.0344172,
2003-01-31, 01:47:01,VALID,918.87,VALID,0,VALID,99.0656,VALID,0.0169808,VALID,19.6129,VALID,35,VALID,0,
2003-01-31, 01:48:00,VALID,918.864,VALID,0,VALID,99.0542,VALID,0.0339617,VALID,19.6062,VALID,35,VALID,0,
2003-01-31, 01:49:00,VALID,918.859,VALID,0,VALID,99.0211,VALID,-0.0169808,VALID,19.607,VALID,35,VALID,0,
2003-01-31, 01:50:01,VALID,918.865,VALID,0,VALID,99.0008,VALID,-0.0849042,VALID,19.6077,VALID,35,VALID,0,
2003-01-31, 01:51:00,VALID,918.845,VALID,0,VALID,99.0033,VALID,-0.0849042,VALID,19.6239,VALID,35,VALID,0,
2003-01-31, 01:52:00,VALID,918.827,VALID,0,VALID,98.9893,VALID,-0.101885,VALID,19.6174,VALID,35,VALID,0,
2003-01-31, 01:53:00,VALID,918.79,VALID,0,VALID,98.9652,VALID,-0.101885,VALID,19.6373,VALID,35,VALID,0,
2003-01-31, 01:54:01,VALID,918.78,VALID,0,VALID,98.9346,VALID,-0.101885,VALID,19.6306,VALID,35,VALID,0,
2003-01-31, 01:55:00,VALID,918.774,VALID,0,VALID,98.9385,VALID,-0.101885,VALID,19.6368,VALID,35,VALID,0,
2003-01-31, 01:56:00,VALID,918.751,VALID,0,VALID,98.9639,VALID,-0.0849042,VALID,19.6467,VALID,35,VALID,0.251149,
2003-01-31, 01:57:01,VALID,918.766,VALID,0,VALID,98.9232,VALID,-0.101885,VALID,19.6567,VALID,35,VALID,0.513622,
2003-01-31, 01:58:00,VALID,918.773,VALID,0,VALID,98.8406,VALID,-0.101885,VALID,19.6308,VALID,35,VALID,0.423775,
2003-01-31, 01:59:01,VALID,918.762,VALID,0,VALID,98.7655,VALID,-0.0849042,VALID,19.608,VALID,35,VALID,0.372396,
2003-01-31, 02:00:00,VALID,918.753,VALID,0,VALID,98.7515,VALID,-0.0339617,VALID,19.5754,VALID,35,VALID,0.37793,
2003-01-31, 02:01:00,VALID,918.731,VALID,0,VALID,98.7782,VALID,-0.0679233,VALID,19.5654,VALID,35,VALID,0.328362,
2003-01-31, 02:02:01,VALID,918.73,VALID,0,VALID,98.7541,VALID,-0.101885,VALID,19.5657,VALID,35,VALID,0.232639,
2003-01-31, 02:03:00,VALID,918.712,VALID,0,VALID,98.7312,VALID,-0.0679233,VALID,19.5396,VALID,35,VALID,0.152344,
2003-01-31, 02:04:00,VALID,918.705,VALID,0,VALID,98.763,VALID,-0.0679233,VALID,19.5364,VALID,35,VALID,0,
2003-01-31, 02:05:00,VALID,918.699,VALID,0,VALID,98.7566,VALID,0,VALID,19.5354,VALID,35,VALID,0,
2003-01-31, 02:06:01,VALID,918.692,VALID,0,VALID,98.7312,VALID,-0.0169808,VALID,19.519,VALID,35,VALID,0,
2003-01-31, 02:07:00,VALID,918.68,VALID,0,VALID,98.7528,VALID,0,VALID,19.5227,VALID,35,VALID,0,
2003-01-31, 02:08:00,VALID,918.672,VALID,0,VALID,98.7719,VALID,0.0339617,VALID,19.5063,VALID,35,VALID,0,
2003-01-31, 02:09:01,VALID,918.667,VALID,0,VALID,98.8024,VALID,0,VALID,19.4998,VALID,35,VALID,0,
2003-01-31, 02:10:00,VALID,918.667,VALID,0,VALID,98.8456,VALID,-0.0169808,VALID,19.5165,VALID,35,VALID,0,
2003-01-31, 02:11:01,VALID,918.649,VALID,0,VALID,98.866,VALID,0,VALID,19.519,VALID,35,VALID,0,
2003-01-31, 02:12:00,VALID,918.628,VALID,0,VALID,98.8736,VALID,0,VALID,19.5359,VALID,35,VALID,0,
2003-01-31, 02:13:00,VALID,918.628,VALID,0,VALID,98.8545,VALID,0,VALID,19.5259,VALID,35,VALID,0,
2003-01-31, 02:14:01,VALID,918.61,VALID,0,VALID,98.8584,VALID,0,VALID,19.5229,VALID,35,VALID,0.0555556,
2003-01-31, 02:15:00,VALID,918.595,VALID,0,VALID,98.8825,VALID,-0.0169808,VALID,19.5294,VALID,35,VALID,0.00390625,
2003-01-31, 02:16:00,VALID,918.591,VALID,0,VALID,98.8812,VALID,-0.0169808,VALID,19.5292,VALID,35,VALID,0,
2003-01-31, 02:17:00,VALID,918.6,VALID,0,VALID,98.899,VALID,0.0339617,VALID,19.5324,VALID,35,VALID,0,
2003-01-31, 02:18:01,VALID,918.589,VALID,0,VALID,98.8978,VALID,0,VALID,19.5359,VALID,35,VALID,0.0851362,
2003-01-31, 02:19:00,VALID,918.594,VALID,0,VALID,98.8647,VALID,0,VALID,19.5359,VALID,35,VALID,0.101351,
2003-01-31, 02:20:00,VALID,918.583,VALID,0,VALID,98.8533,VALID,-0.0169808,VALID,19.5192,VALID,91,VALID,0.331342,
2003-01-31, 02:21:01,VALID,918.559,VALID,0,VALID,98.8571,VALID,0.0169808,VALID,19.5132,VALID,155,VALID,0.367588,
2003-01-31, 02:22:00,VALID,918.538,VALID,0,VALID,98.8711,VALID,0,VALID,19.4929,VALID,155,VALID,0.351351,
2003-01-31, 02:23:01,VALID,918.514,VALID,0,VALID,98.8978,VALID,0,VALID,19.4929,VALID,155,VALID,0.338108,
2003-01-31, 02:24:00,VALID,918.488,VALID,0,VALID,98.9079,VALID,0,VALID,19.513,VALID,155,VALID,0.316211,
2003-01-31, 02:25:00,VALID,918.468,VALID,0,VALID,98.8901,VALID,0.0169808,VALID,19.4966,VALID,155,VALID,0.171875,
2003-01-31, 02:26:01,VALID,918.451,VALID,0,VALID,98.9143,VALID,0,VALID,19.5065,VALID,155,VALID,0.03125,
2003-01-31, 02:27:00,VALID,918.443,VALID,0,VALID,98.9143,VALID,0,VALID,19.5028,VALID,155,VALID,0,
2003-01-31, 02:28:00,VALID,918.433,VALID,0,VALID,98.9143,VALID,0.0169808,VALID,19.4896,VALID,156,VALID,0.000236742,
2003-01-31, 02:29:00,VALID,918.418,VALID,0,VALID,98.9245,VALID,0.0169808,VALID,19.4961,VALID,162,VALID,0.159467,
2003-01-31, 02:30:01,VALID,918.407,VALID,0,VALID,98.9436,VALID,0,VALID,19.4963,VALID,162,VALID,0.0180288,
2003-01-31, 02:31:00,VALID,918.41,VALID,0,VALID,98.9334,VALID,0.0339617,VALID,19.4961,VALID,163,VALID,0.171242,
2003-01-31, 02:32:00,VALID,918.408,VALID,0,VALID,98.927,VALID,0.0169808,VALID,19.4829,VALID,167,VALID,0.143382,
2003-01-31, 02:33:01,VALID,918.404,VALID,0,VALID,98.9181,VALID,0.0169808,VALID,19.4936,VALID,167,VALID,0.0933494,
2003-01-31, 02:34:00,VALID,918.411,VALID,0,VALID,98.927,VALID,0,VALID,19.4735,VALID,167,VALID,0,
2003-01-31, 02:35:01,VALID,918.399,VALID,0,VALID,98.9321,VALID,0,VALID,19.4799,VALID,167,VALID,0,
2003-01-31, 02:36:00,VALID,918.394,VALID,0,VALID,98.9321,VALID,-0.0169808,VALID,19.4936,VALID,167,VALID,0,
2003-01-31, 02:37:00,VALID,918.39,VALID,0,VALID,98.9016,VALID,0,VALID,19.4867,VALID,167,VALID,0.0423769,
2003-01-31, 02:38:01,VALID,918.378,VALID,0,VALID,98.8266,VALID,0,VALID,19.4807,VALID,125,VALID,0.426215,
2003-01-31, 02:39:00,VALID,918.368,VALID,0,VALID,98.7782,VALID,0,VALID,19.4446,VALID,117,VALID,0.563867,
2003-01-31, 02:40:00,VALID,918.366,VALID,0,VALID,98.8139,VALID,0,VALID,19.4317,VALID,117,VALID,0.693419,
2003-01-31, 02:41:00,VALID,918.337,VALID,0,VALID,98.8736,VALID,0,VALID,19.432,VALID,122,VALID,0.727941,
2003-01-31, 02:42:01,VALID,918.308,VALID,0,VALID,98.8812,VALID,0,VALID,19.4419,VALID,118,VALID,0.499199,
2003-01-31, 02:43:00,VALID,918.286,VALID,0,VALID,98.8952,VALID,0.0169808,VALID,19.425,VALID,132,VALID,0.484375,
2003-01-31, 02:44:00,VALID,918.26,VALID,0,VALID,98.8901,VALID,-0.0169808,VALID,19.4419,VALID,128,VALID,0.596737,
2003-01-31, 02:45:01,VALID,918.225,VALID,0,VALID,98.8558,VALID,0,VALID,19.4421,VALID,117,VALID,0.48097,
2003-01-31, 02:46:00,VALID,918.209,VALID,0,VALID,98.8469,VALID,0,VALID,19.4252,VALID,114,VALID,0.539063,
2003-01-31, 02:47:01,VALID,918.191,VALID,0,VALID,98.8202,VALID,0,VALID,19.429,VALID,110,VALID,0.710069,
2003-01-31, 02:48:00,VALID,918.173,VALID,0,VALID,98.8049,VALID,0.0169808,VALID,19.4225,VALID,110,VALID,0.475195,
2003-01-31, 02:49:00,VALID,918.166,VALID,0,VALID,98.7948,VALID,0.0339617,VALID,19.3992,VALID,90,VALID,0.630208,
2003-01-31, 02:50:01,VALID,918.168,VALID,0,VALID,98.8406,VALID,0.0509425,VALID,19.3897,VALID,67,VALID,0.563802,
2003-01-31, 02:51:00,VALID,918.166,VALID,0,VALID,98.8723,VALID,0.0169808,VALID,19.3996,VALID,52,VALID,0.569922,
2003-01-31, 02:52:00,VALID,918.152,VALID,0,VALID,98.8762,VALID,0,VALID,19.3999,VALID,62,VALID,0.775568,
2003-01-31, 02:53:00,VALID,918.151,VALID,0,VALID,98.8329,VALID,0,VALID,19.3902,VALID,71,VALID,0.72932,
2003-01-31, 02:54:01,VALID,918.121,VALID,0,VALID,98.8075,VALID,0,VALID,19.3673,VALID,77,VALID,0.760016,
2003-01-31, 02:55:00,VALID,918.103,VALID,0,VALID,98.8227,VALID,0,VALID,19.3382,VALID,72,VALID,0.683699,
2003-01-31, 02:56:00,VALID,918.088,VALID,0,VALID,98.8533,VALID,0,VALID,19.3258,VALID,90,VALID,0.835018,
2003-01-31, 02:57:01,VALID,918.064,VALID,0,VALID,98.913,VALID,0,VALID,19.3092,VALID,94,VALID,0.854567,
2003-01-31, 02:58:00,VALID,918.044,VALID,0,VALID,98.9448,VALID,0,VALID,19.3062,VALID,68,VALID,0.434755,
2003-01-31, 02:59:01,VALID,918.021,VALID,0,VALID,98.9868,VALID,0.0169808,VALID,19.2893,VALID,84,VALID,0.394748,
2003-01-31, 03:00:00,VALID,918.021,VALID,0,VALID,99.0198,VALID,0,VALID,19.2932,VALID,109,VALID,0.606055,
2003-01-31, 03:01:00,VALID,918.025,VALID,0,VALID,99.0796,VALID,0,VALID,19.2898,VALID,99,VALID,0.941525,
2003-01-31, 03:02:01,VALID,918.022,VALID,0,VALID,99.119,VALID,0.0169808,VALID,19.2835,VALID,111,VALID,0.778646,
2003-01-31, 03:03:00,VALID,918.012,VALID,0,VALID,99.1508,VALID,0,VALID,19.2734,VALID,78,VALID,0.292188,
2003-01-31, 03:04:00,VALID,918.018,VALID,0,VALID,99.1852,VALID,0,VALID,19.2803,VALID,85,VALID,0.393466,
2003-01-31, 03:05:00,VALID,918.018,VALID,0,VALID,99.2157,VALID,0,VALID,19.287,VALID,97,VALID,0.0413603,
2003-01-31, 03:06:01,VALID,918.013,VALID,0,VALID,99.2411,VALID,0,VALID,19.2868,VALID,97,VALID,0,
2003-01-31, 03:07:00,VALID,918.009,VALID,0,VALID,99.2462,VALID,0,VALID,19.2868,VALID,97,VALID,0,
2003-01-31, 03:08:00,VALID,918.015,VALID,0,VALID,99.2729,VALID,0.0169808,VALID,19.2967,VALID,97,VALID,0,
2003-01-31, 03:09:01,VALID,918.022,VALID,0,VALID,99.2907,VALID,0,VALID,19.2965,VALID,97,VALID,0,
2003-01-31, 03:10:00,VALID,918.027,VALID,0,VALID,99.3034,VALID,0,VALID,19.3191,VALID,97,VALID,0.029772,
2003-01-31, 03:11:01,VALID,918.034,VALID,0,VALID,99.325,VALID,0,VALID,19.3315,VALID,97,VALID,0.0444878,
2003-01-31, 03:12:00,VALID,918.044,VALID,0,VALID,99.3416,VALID,0.0169808,VALID,19.3514,VALID,97,VALID,0,
2003-01-31, 03:13:01,VALID,918.033,VALID,0,VALID,99.3619,VALID,0,VALID,19.3539,VALID,78,VALID,0.000473485,
2003-01-31, 03:14:01,VALID,918.036,VALID,0,VALID,99.3568,VALID,-0.0169808,VALID,19.3611,VALID,52,VALID,0.319444,
2003-01-31, 03:15:01,VALID,918.017,VALID,0,VALID,99.3683,VALID,0,VALID,19.3805,VALID,49,VALID,0.239453,
2003-01-31, 03:16:00,VALID,918.023,VALID,0,VALID,99.3734,VALID,0,VALID,19.3678,VALID,46,VALID,0,
2003-01-31, 03:17:01,VALID,918.004,VALID,0,VALID,99.3619,VALID,0,VALID,19.3452,VALID,45,VALID,0.00620404,
2003-01-31, 03:18:01,VALID,918.012,VALID,0,VALID,99.3263,VALID,0.0169808,VALID,19.3064,VALID,34,VALID,0.292067,
2003-01-31, 03:19:01,VALID,917.999,VALID,0,VALID,99.3149,VALID,0.0169808,VALID,19.2637,VALID,18,VALID,0.346917,
2003-01-31, 03:20:00,VALID,917.994,VALID,0,VALID,99.3174,VALID,-0.0339617,VALID,19.2577,VALID,17,VALID,0.139706,
2003-01-31, 03:21:01,VALID,917.974,VALID,0,VALID,99.3365,VALID,0,VALID,19.2676,VALID,17,VALID,0.352364,
2003-01-31, 03:22:00,VALID,917.951,VALID,0,VALID,99.3454,VALID,-0.0339617,VALID,19.2549,VALID,17,VALID,0.366343,
2003-01-31, 03:23:01,VALID,917.938,VALID,0,VALID,99.3517,VALID,-0.0509425,VALID,19.245,VALID,17,VALID,0.344184,
2003-01-31, 03:24:01,VALID,917.93,VALID,0,VALID,99.3543,VALID,-0.0169808,VALID,19.2353,VALID,17,VALID,0.270703,
2003-01-31, 03:25:01,VALID,917.931,VALID,0,VALID,99.3797,VALID,-0.0169808,VALID,19.2584,VALID,17,VALID,0.466619,
2003-01-31, 03:26:01,VALID,917.922,VALID,0,VALID,99.3835,VALID,-0.0339617,VALID,19.2485,VALID,17,VALID,0.505642,
2003-01-31, 03:27:01,VALID,917.918,VALID,0,VALID,99.3861,VALID,0,VALID,19.2383,VALID,17,VALID,0.463086,
2003-01-31, 03:28:01,VALID,917.929,VALID,0,VALID,99.4013,VALID,-0.0679233,VALID,19.245,VALID,17,VALID,0.570076,
2003-01-31, 03:29:01,VALID,917.932,VALID,0,VALID,99.409,VALID,-0.0339617,VALID,19.2522,VALID,16,VALID,0.765395,
2003-01-31, 03:30:01,VALID,917.925,VALID,0,VALID,99.4166,VALID,-0.0169808,VALID,19.2552,VALID,23,VALID,0.817708,
2003-01-31, 03:31:01,VALID,917.934,VALID,0,VALID,99.4153,VALID,0,VALID,19.2582,VALID,31,VALID,1.09058,
2003-01-31, 03:32:01,VALID,917.934,VALID,0,VALID,99.4318,VALID,-0.0169808,VALID,19.2482,VALID,27,VALID,1.1659,
2003-01-31, 03:33:01,VALID,917.93,VALID,0,VALID,99.4318,VALID,-0.0169808,VALID,19.2452,VALID,22,VALID,1.09175,
2003-01-31, 03:34:01,VALID,917.937,VALID,0,VALID,99.4382,VALID,-0.0169808,VALID,19.2452,VALID,24,VALID,1.4223,
2003-01-31, 03:35:01,VALID,917.936,VALID,0,VALID,99.4547,VALID,0,VALID,19.2584,VALID,33,VALID,1.25521,
2003-01-31, 03:36:01,VALID,917.936,VALID,0,VALID,99.4713,VALID,-0.0169808,VALID,19.2612,VALID,19,VALID,1.31543,
2003-01-31, 03:37:01,VALID,917.943,VALID,0,VALID,99.4687,VALID,-0.0169808,VALID,19.2778,VALID,16,VALID,0.849195,